Ignacio, CO

5:18 PM MST on February 06, 2016 (GMT -0700)
Durango-La Plata County

Weather History for KDRO - April, 2014

Change the Weather History Date:

Friday, April 4, 2014

  Actual Average Record
Temperature  
Mean Temperature 34 °F 42 °F  
Max Temperature 51 °F 58 °F 72 °F (2002)
Min Temperature 16 °F 27 °F 15 °F (1974)
Degree Days  
Heating Degree Days 31 23  
Month to date heating degree days 103 92  
Since 1 July heating degree days 5850 6121  
Cooling Degree Days 0 0  
Month to date cooling degree days 0 0  
Year to date cooling degree days 0 0  
Moisture  
Dew Point 10 °F    
Average Humidity 44    
Maximum Humidity 74    
Minimum Humidity 14    
Precipitation  
Precipitation 0.00 in 0.04 in 0.72 in (1987)
Month to date precipitation 0.01 0.15  
Year to date precipitation 1.54 3.68  
Sea Level Pressure  
Sea Level Pressure 30.07 in    
Wind  
Wind Speed 5 mph (ENE)    
Max Wind Speed 15 mph    
Max Gust Speed 22 mph    
Visibility 10 miles    
Events      
T = Trace of Precipitation, MM = Missing Value Source: NWS Daily Summary

Daily Weather History Graph

Daily Weather History Graph

Search for Another Location

Airport or City:

Trip Planner

Search our weather history database for the weather conditions in past years. The results will help you decide how hot, cold, wet, or windy it might be!

Date:

Astronomy

Apr. 04, 2014 Rise Set
Actual Time 6:52 AM MDT 7:36 PM MDT
Civil Twilight 6:25 AM MDT 8:02 PM MDT
Nautical Twilight 5:54 AM MDT 8:33 PM MDT
Astronomical Twilight 5:22 AM MDT 9:05 PM MDT
Moon 10:16 AM MDT (4/4) No Moon Set
Length of Visible Light 13h 36m
Length of Day
12h 44m
Waxing Crescent, 26% of the Moon is Illuminated
Apr 4
Waxing Crescent
Apr 7
First Quarter
Apr 15
Full
Apr 22
Last Quarter
Apr 29
New

Hourly Weather History & Observations

Time (MDT) Temp. Windchill Dew Point Humidity Pressure Visibility Wind Dir Wind Speed Gust Speed Precip Events Conditions
12:53 AM 26.1 °F - 12.9 °F 58% 30.15 in 10.0 mi Calm Calm - N/A   Clear
1:53 AM 23.0 °F - 12.0 °F 63% 30.14 in 10.0 mi Calm Calm - N/A   Clear
2:53 AM 21.0 °F 14.6 °F 12.9 °F 71% 30.14 in 10.0 mi ENE 4.6 mph - N/A   Clear
3:53 AM 19.9 °F - 10.9 °F 68% 30.14 in 10.0 mi Calm Calm - N/A   Clear
4:53 AM 18.0 °F 11.1 °F 10.0 °F 71% 30.14 in 10.0 mi East 4.6 mph - N/A   Clear
5:53 AM 19.9 °F - 10.9 °F 68% 30.14 in 10.0 mi Calm Calm - N/A   Clear
6:53 AM 19.9 °F - 10.9 °F 68% 30.16 in 10.0 mi Calm Calm - N/A   Clear
7:53 AM 23.0 °F - 12.9 °F 65% 30.17 in 10.0 mi Calm Calm - N/A   Clear
8:53 AM 30.9 °F - 15.1 °F 52% 30.16 in 10.0 mi Calm Calm - N/A   Clear
9:53 AM 37.0 °F 32.4 °F 16.0 °F 42% 30.15 in 10.0 mi East 5.8 mph - N/A   Clear
10:53 AM 41.0 °F 36.4 °F 15.1 °F 35% 30.14 in 10.0 mi Variable 6.9 mph - N/A   Clear
11:53 AM 46.0 °F 42.5 °F 10.9 °F 24% 30.09 in 10.0 mi Variable 6.9 mph 17.3 mph N/A   Partly Cloudy
12:53 PM 46.0 °F 43.9 °F 7.0 °F 20% 30.09 in 10.0 mi ENE 4.6 mph - N/A   Scattered Clouds
1:53 PM 48.9 °F - 5.0 °F 17% 30.05 in 10.0 mi SSW 11.5 mph 16.1 mph N/A   Clear
2:53 PM 48.0 °F - 3.9 °F 16% 30.04 in 10.0 mi WSW 8.1 mph - N/A   Clear
3:53 PM 48.0 °F - 3.9 °F 16% 30.02 in 10.0 mi South 4.6 mph - N/A   Clear
4:53 PM 50.0 °F - 3.0 °F 15% 30.00 in 10.0 mi SSW 8.1 mph - N/A   Clear
5:53 PM 48.0 °F - 3.0 °F 16% 30.00 in 10.0 mi West 3.5 mph - N/A   Clear
6:53 PM 46.9 °F - 6.1 °F 19% 29.99 in 10.0 mi NNW 6.9 mph - N/A   Partly Cloudy
7:53 PM 46.0 °F 44.8 °F 8.1 °F 21% 29.97 in 10.0 mi North 3.5 mph - N/A   Overcast
8:53 PM 43.0 °F 40.3 °F 9.0 °F 25% 29.96 in 10.0 mi ENE 4.6 mph - N/A   Mostly Cloudy
9:53 PM 41.0 °F 37.1 °F 12.0 °F 31% 29.95 in 10.0 mi East 5.8 mph - N/A   Mostly Cloudy
10:53 PM 39.9 °F 35.8 °F 12.9 °F 33% 29.92 in 10.0 mi NNE 5.8 mph - N/A   Mostly Cloudy
11:53 PM 39.9 °F 37.8 °F 14.0 °F 35% 29.88 in 10.0 mi NE 3.5 mph - N/A   Overcast